sat.trackr.live / text

‹ back to catalog

2024-018C

NORAD 58851 · 2024-018C

PAYLOAD ACTIVE UNKNOWN

§ Identity

Operator
Country
IRAN
Launch date
2024-01-28
Launch site
SEMLS
Launch vehicle
Mass (kg)
RCS (m²)

External: N2YO · Heavens-Above · Gunter

§ Orbital elements

Epoch: 2026-09-22T22:42:45.495360Z

Period
99.90 min
Inclination
58.6849°
Eccentricity
0.0417390
Mean motion
14.41439112 rev/d
Perigee alt
456.1 km
Apogee alt
1,051.4 km
Semi-major
7,131.9 km
B*
7.3859e-5
RAAN
239.8348°
Arg perigee
223.3172°
Mean anomaly
133.4338°
Rev number
13,938

§ Raw data

2024-018C1 58851U 24018C   26265.94635990  .00000442  00000+0  73859-4 0  99932 58851  58.6849 239.8348 0417390 223.3172 133.4338 14.41439112139389

JSON: /api/v1/satellites/58851 · /tle

For live sub-satellite position, see the globe view (requires WebGL).

§ Visibility from observer

Set your observer location to see the next 7 days of passes ≥ 10°. The values pass through the URL so the page stays shareable.

No JS? Fill the form by hand. The geolocation button needs JavaScript.